Regional Weather Roundup
Issued by NWS Charleston, SC

Current Version | Previous Version | Text Only | Print | Product List | Glossary Off
Versions: 1 2 3 4 5 6 7 8 9 10 11 12 13 14 15 16 17 18 19 20 21 22 23 24 25 26 27 28 29 30 31 32 33 34 35 36 37 38 39 40 41 42 43 44 45 46 47 48 49 50

000
ASUS42 KCHS 110627
RWRCHS

REGIONAL WEATHER ROUNDUP
NATIONAL WEATHER SERVICE CHARLESTON SC
100 AM EST MON DEC 11 2017

NOTE: "FAIR" INDICATES FEW OR NO CLOUDS BELOW 12,000 FEET WITH NO
SIGNIFICANT WEATHER AND/OR OBSTRUCTIONS TO VISIBILITY.

NOT ALL STATIONS ARE QUALITY CONTROLLED. USE DATA WITH CAUTION...
ESPECIALLY DEWPOINT OBSERVATIONS.

SCZ027-030-031-034>040-042>050-110700-
...SOUTHEAST SOUTH CAROLINA...

CITY           SKY/WX    TMP DP  RH WIND       PRES   REMARKS
N CHARLESTON   CLEAR     36  31  82 SW7       30.24F WCI  30
6HR MIN TEMP:  34; 6HR MAX TEMP:  39;

WATERFRONT PRK   N/A     41  35  79 VRB2      30.09F
JOHNS ISLAND   FAIR      37  32  81 SW5       30.24F WCI  34
PINOPOLIS        N/A     39  34  81 SW8       30.16S WCI  34
MONCKS CORNER  FAIR      34  28  80 CALM      30.22F
SUMMERVILLE    FAIR      32  30  93 CALM      30.24F
BEAUFORT MCAS  CLEAR     39  30  70 W7        30.25F WCI  34
6HR MIN TEMP:  35; 6HR MAX TEMP:  40;

BEAUFORT ARPT  FAIR      39  30  70 W8        30.25F HAZE    WCI  34
HILTON HEAD IS CLEAR     37  30  75 W5        30.27S WCI  34
WALTERBORO     CLEAR     32  28  86 CALM      30.25S
ALLENDALE      FAIR      34  28  80 CALM      30.23F

...SOUTHERN MIDLANDS AND PEE DEE...

CITY           SKY/WX    TMP DP  RH WIND       PRES   REMARKS
GEORGETOWN     FAIR      32  32 100 SW3       30.23F
KINGSTREE      FAIR      30  28  93 CALM      30.21F
ORANGEBURG     CLEAR     31  27  85 SW7       30.22S WCI  24
6HR MIN TEMP:  31; 6HR MAX TEMP:  39;

BARNWELL         N/A     34  27  75 CALM      30.22F
AIKEN          FAIR      32  27  80 SW9       30.23F WCI  24
MANNING        FAIR      36  30  80 MISG      30.21F
COLUMBIA       CLEAR     32  29  88 W3        30.19F
6HR MIN TEMP:  30; 6HR MAX TEMP:  38;

SUMTER         CLEAR     35  26  71 SW8       30.18R WCI  28
6HR MIN TEMP:  32; 6HR MAX TEMP:  37;

FLORENCE       CLEAR     33  28  81 SW6       30.20R WCI  28
6HR MIN TEMP:  33; 6HR MAX TEMP:  39;

MYRTLE BEACH   CLEAR     37  30  75 SW7       30.22F WCI  32
N MYRTLE BEACH CLEAR     40  30  67 SW8       30.20F WCI  34
6HR MIN TEMP:  35; 6HR MAX TEMP:  41;


$$

GAZ063-065-086>088-099>101-113>116-118-119-134>141-150-110700-
...SOUTHEAST GEORGIA...

CITY           SKY/WX    TMP DP  RH WIND       PRES   REMARKS
SAVANNAH ARPT  CLEAR     34  29  82 CALM      30.27F
6HR MIN TEMP:  34; 6HR MAX TEMP:  39;

HUNTER AAF     CLEAR     34  29  82 SW3       30.24F
6HR MIN TEMP:  34; 6HR MAX TEMP:  38;

FORT STEWART   CLEAR     30  28  91 CALM      30.26S
6HR MIN TEMP:  30; 6HR MAX TEMP:  37;

STATESBORO     CLEAR     35  26  69 W3        30.25F
SYLVANIA       CLEAR     34  32  94 CALM      30.26S
CLAXTON        FAIR      31  31  99 CALM      30.27S

...CSRA...CENTRAL AND FAR SOUTHEAST GEORGIA...

CITY           SKY/WX    TMP DP  RH WIND       PRES   REMARKS
THOMSON        CLEAR     34  25  70 NW6       30.28F WCI  29
AUGUSTA-BUSH   CLEAR     28  26  92 SW5       30.24F WCI  23
6HR MIN TEMP:  28; 6HR MAX TEMP:  36;

AUGUSTA-DANIEL CLEAR     38  25  59 VRB5      30.23F WCI  34
SWAINSBORO     FAIR      34  30  86 W5        30.27F WCI  30
VIDALIA        CLEAR     37  30  75 W3        30.27S
EASTMAN        FAIR      33  24  70 CALM      30.30S
HAZLEHURST     FAIR      35  29  80 CALM      30.27S
ALMA           CLEAR     31  29  92 CALM      30.28S
6HR MIN TEMP:  31; 6HR MAX TEMP:  38;

WAYCROSS       CLEAR     32  29  87 SW5       30.30S WCI  27
JESUP          NOT AVBL
BAXLEY         FAIR      30  30 100 CALM      30.28R
BRUNSWICK      CLEAR     36  30  80 W5        30.30S WCI  32
SAINT SIMONS   CLEAR     41  31  67 W6        30.29S
6HR MIN TEMP:  39; 6HR MAX TEMP:  43;


$$

SCZ027-028-034-036>038-045-046-048>050-GAZ119-141-110700-
...LAKE AND SUPPLEMENTAL COASTAL OBSERVATIONS...

STATION/POSITION TIME  TEMP    WIND        PRES    WAVE   SWELL
                       AIR SEA DIR/SP/G            HT/PER HT/PER/DIR
                 (UTC) (F)     (DEG/KT/KT) (MB)    (FT/S) (FT/S/D)
WINYAH BAY       0545   39     250/  4     1024.0S
LAKE MURRAY      0550   42     260/ 13/ 21 1021.0F
ACE BASIN NERRS  0545   38        CALM     1024.0F
FORT PULASKI     0600   42 55  270/  6/  9 1025.1
SAPELO ISLAND    NOT AVBL

$$

ANZ835-935-AMZ111-154-330-350-352-354-370-450-454-472-110700-
...C-MAN AND BUOY OBSERVATIONS...

STATION/POSITION TIME  TEMP    WIND        PRES    WAVE   SWELL
                       AIR SEA DIR/SP/G            HT/PER HT/PER/DIR
                 (UTC) (F)     (DEG/KT/KT) (MB)    (FT/S) (FT/S/D)
BUOY 41004       0600      74  280/ 16/ 21 1023.2
BUOY 41008       0550   51 61  290/ 17/ 19 1024.7S   2/ 4   2/ 90/ 8
FOLLY BEACH CMAN 0600   42     260/  6/  9 1024.4F
CAPERS NEARSHORE 0608   45     270/ 16/ 21 1023.3F
FRIPP NEARSHORE  0608   45 57  260/ 17/ 21 1024.3R


STATION/POSITION TIME  TEMP    WIND        PRES    WAVE   SWELL
                       AIR SEA DIR/SP/G            HT/PER HT/PER/DIR
                 (UTC) (F)     (DEG/KT/KT) (MB)    (FT/S) (FT/S/D)
5E ST. MARYS GA  0600      60                N/A     2/11
FRYING PAN BUOY  0600   52 63  270/ 16/ 19 1022.3
BUOY 41025       0600   50 74  260/ 17/ 23 1021.8
CAPE LOOKOUT NC  0600          260/ 12/ 14 1021.9F
BUOY 41002       0550   59 75  270/  8/ 12 1022.0F   6/ 7   5/300/ 7
BUOY 41010       NOT AVBL
ST AUGUSTINE FL  0600   42 62  270/  6/  7 1026.2R


$$




USA.gov is the U.S. government's official web portal to all federal, state and local government web resources and services.